Torna al catalogo

FENGYUN 1C DEB

AttivoPO
NORAD 30744·DEBRIS·🇨🇳 China

Lanciato May 10, 1999 da Taiyuan Satellite Launch Center

Loading…

Prossimi Passaggi (prossime 24 ore)

TLE

AggiornatoSource: Space-Track

Epoca: Sep 14, 2026, 11:43 UTC

1 30744U 99025ATE 26257.48856670  .00162965  00000-0  44855-2 0  9996
2 30744  98.7280  86.7308 0000485 208.2133 182.5318 15.36495909 22421

Traccia FENGYUN 1C DEB in tempo reale con AllMySat

Download on the App Store